Theta_e
299 299 299 298 298 298 297 297 297 297 297 298 298 298 298 298 299 299 300 300 300 301 301 301 301 300 299 299 299 299 299 299 299 299 299 299 299 300 300 300 299 299
297 297 297 297 297 297 296 296 296 296 296 296 297 297 297 297 297 297 298 298 299 299 300 300 301 301 301 300 299 299 299 299 299 299 298 298 298 298 299 299 299 299
294 294 294 294 294 295 295 294 294 294 294 294 295 295 295 295 295 296 296 296 297 297 298 298 299 300 301 301 301 300 300 299 299 299 298 298 298 298 298 298 298 298
292 292 292 292 292 292 292 292 292 293 292 293 293 293 293 293 293 293 293 294 294 295 296 296 297 297 298 299 300 301 301 300 300 299 299 299 298 298 298 297 297 297
290 290 290 290 290 290 290 290 291 291 291 291 291 291 291 292 292 292 292 291 291 292 292 293 294 295 296 297 298 299 300 300 300 299 298 299 298 298 297 297 297 297
288 289 289 289 289 289 289 289 289 289 289 290 290 290 290 290 290 290 290 291 290 290 289 290 290 291 292 294 295 296 297 298 299 299 298 299 298 298 297 297 296 296
288 288 288 288 288 288 288 288 288 288 288 288 288 288 289 289 289 289 289 289 289 289 289 288 288 288 289 290 291 292 293 295 296 297 298 298 298 298 298 297 296 296
287 287 287 287 287 287 287 287 287 287 287 287 287 287 287 287 288 288 288 288 288 289 289 288 288 288 288 288 288 288 289 291 292 294 295 296 297 297 298 297 296 296
287 287 287 287 287 287 287 287 287 287 287 287 287 287 287 287 287 287 287 287 287 287 288 288 288 288 288 288 287 287 287 288 288 289 291 293 294 295 296 296 296 296
287 287 287 287 287 287 287 287 287 287 287 287 287 287 287 287 287 287 287 287 287 287 287 287 287 287 288 288 287 287 287 287 287 287 288 289 290 291 293 294 295 295
288 288 288 288 288 288 288 288 288 288 288 288 288 288 288 288 288 288 288 288 287 287 287 287 287 287 287 287 287 287 287 286 286 286 286 287 287 288 289 290 292 293
288 288 288 288 288 288 288 288 288 288 288 288 288 288 288 288 288 288 288 288 288 288 288 288 287 287 287 287 287 287 287 287 286 286 286 286 286 286 287 287 288 289
288 288 288 288 288 288 288 288 288 288 288 288 288 288 287 287 287 287 287 287 287 287 288 288 288 288 288 287 287 287 287 286 286 286 286 286 286 286 286 286 286 287
288 288 288 288 288 288 288 288 288 287 287 287 287 287 287 287 286 286 286 286 286 287 287 287 287 287 288 288 288 287 287 287 287 286 286 286 286 286 286 286 286 286
287 287 287 287 287 287 287 287 287 287 286 286 286 286 286 286 285 285 286 286 286 286 286 286 286 286 286 287 287 287 287 287 287 287 287 286 286 286 286 286 285 285
287 287 287 287 286 286 286 286 285 285 285 285 285 285 285 285 285 285 285 285 285 285 285 285 285 285 285 285 285 285 286 286 286 286 287 286 286 286 286 286 286 285
286 285 285 285 285 284 284 284 284 284 284 284 284 284 284 284 284 284 284 284 284 284 285 285 285 285 285 285 284 284 284 284 284 284 285 285 285 286 286 286 286 286
284 284 284 284 283 283 283 282 282 282 282 282 282 282 283 283 283 283 283 283 283 283 284 284 284 284 285 284 284 284 283 283 282 282 282 283 283 284 285 285 286 286
283 283 283 283 282 282 281 281 281 281 281 281 281 281 282 282 282 282 282 282 282 282 283 283 283 284 284 284 284 284 283 283 282 281 281 281 282 282 283 284 284 285
283 282 282 282 281 281 281 281 281 280 280 280 280 280 280 280 280 280 281 281 281 281 281 281 282 283 283 283 283 282 282 281 280 280 280 280 281 281 281 282 283 283
282 281 281 281 281 281 280 280 280 280 279 279 279 278 278 278 278 278 278 279 279 279 278 279 281 281 281 280 279 279 279 278 278 278 279 279 279 280 280 281 281 282
281 281 281 280 280 280 280 279 279 279 278 278 277 278 277 277 277 277 276 277 277 276 276 276 278 279 278 277 276 276 276 276 276 276 277 277 278 278 279 279 280 280
281 280 280 280 280 279 279 279 278 278 278 277 276 277 276 276 275 275 275 274 274 274 274 274 275 276 275 274 274 274 274 274 274 275 275 275 276 276 277 277 278 278
280 280 279 279 279 279 279 278 278 277 277 276 275 275 274 274 273 273 273 273 272 272 272 272 273 273 272 272 272 272 272 272 272 272 273 273 273 274 275 275 276 277
279 279 279 279 279 279 278 278 277 277 276 275 273 273 272 272 272 272 272 272 271 271 271 270 271 272 271 271 271 271 270 270 271 271 271 271 272 272 273 273 274 275
279 279 279 279 278 278 277 277 276 276 274 273 272 272 272 271 271 271 271 271 271 271 271 270 270 271 270 270 270 269 269 269 270 270 270 271 271 271 271 271 272 273
Wind_Speed
13 13 14 14 15 15 15 15 15 15 14 14 14 13 13 14 14 14 14 13 13 13 13 13 14 14 14 15 16 17 18 19 20 21 23 26 28 30 32 34 36 37
11 11 12 12 13 14 15 16 17 16 16 16 14 14 13 13 13 14 14 14 14 14 14 14 14 15 15 15 16 18 19 20 21 20 21 24 26 27 30 31 33 35
9 10 11 11 12 13 14 15 16 16 17 17 17 16 16 16 15 15 15 15 15 15 15 14 14 14 15 15 16 17 18 20 21 21 22 23 24 26 28 29 31 33
7 8 9 10 11 12 13 14 15 15 16 17 18 18 19 19 19 19 18 17 17 16 16 16 16 16 16 16 16 17 17 18 20 21 23 24 24 25 26 27 29 31
8 8 8 8 10 11 12 14 15 16 17 17 18 19 19 20 21 22 22 22 21 20 19 18 18 18 18 18 18 18 18 18 19 20 22 24 25 25 26 26 28 29
14 14 14 14 14 15 15 14 15 15 16 17 18 19 20 21 22 23 24 25 25 25 24 23 21 20 20 20 19 19 19 20 20 20 22 23 23 24 25 26 28 29
19 20 20 21 21 21 21 20 20 19 19 18 18 19 20 21 22 23 24 25 26 26 27 27 26 24 22 22 21 21 20 20 21 22 23 23 23 24 24 25 27 29
22 22 23 24 24 25 26 26 27 27 26 26 24 23 23 22 22 23 23 25 26 27 28 28 28 28 27 25 24 23 22 21 21 23 24 25 25 25 25 24 26 28
23 24 25 26 27 28 29 30 31 31 31 32 31 31 30 28 28 27 26 26 25 26 27 28 29 29 30 29 28 27 26 24 23 23 24 25 26 27 27 26 27 28
23 24 25 27 28 29 30 31 32 33 34 35 35 36 35 35 34 34 33 32 31 29 28 27 27 28 29 30 30 30 30 29 27 26 25 26 26 27 27 27 28 29
23 25 27 28 29 30 31 32 33 34 35 36 37 37 38 38 38 38 38 39 38 37 35 33 31 29 29 29 30 31 31 32 31 29 28 27 27 27 27 27 28 30
25 28 29 31 32 33 34 34 35 36 36 37 37 38 38 38 39 39 40 41 41 41 41 40 39 37 35 33 32 31 32 33 33 33 32 31 30 29 28 28 28 29
30 32 33 34 35 36 37 38 38 39 39 39 39 39 39 39 40 40 41 41 42 43 43 43 43 43 42 41 39 37 36 35 36 36 36 35 34 33 32 31 30 30
35 36 36 37 39 39 40 41 41 41 41 41 41 41 41 41 42 43 43 44 44 44 44 44 45 45 45 45 45 44 43 42 40 40 39 39 38 37 36 35 33 33
38 39 39 40 41 41 41 41 41 42 42 42 43 43 44 45 45 46 47 47 47 47 47 47 47 47 47 47 47 47 47 47 47 46 44 44 43 42 41 39 38 36
38 39 39 40 41 41 42 42 43 44 45 45 46 46 47 48 48 49 49 50 51 51 51 51 51 50 50 50 49 49 49 50 50 50 49 49 48 47 47 45 43 41
38 38 40 41 42 43 44 45 46 47 48 49 49 49 50 50 50 51 51 52 53 53 54 54 54 54 53 52 52 52 52 52 52 51 51 51 51 51 51 51 49 47
37 39 41 43 44 45 45 46 47 48 49 49 50 51 51 51 52 52 52 52 53 53 55 55 56 56 55 55 55 54 54 54 53 52 51 52 52 53 54 54 54 53
39 41 43 44 45 45 45 46 46 47 48 48 49 50 50 51 52 52 52 53 53 54 55 55 56 56 56 56 57 56 56 56 54 52 51 52 53 53 54 54 55 55
41 42 43 44 44 44 45 46 46 47 47 47 48 48 49 50 51 52 53 54 54 55 56 57 58 57 57 57 58 58 58 56 53 52 52 52 52 52 52 53 54 54
41 42 43 44 44 44 45 45 46 47 48 48 48 49 49 51 52 53 54 55 56 56 57 59 61 60 59 59 58 58 58 55 52 51 52 53 53 52 51 51 52 52
42 42 43 43 44 45 46 47 47 48 49 48 49 51 51 52 53 53 54 56 56 56 56 59 62 62 60 58 57 56 55 52 51 52 53 54 55 56 54 52 50 50
41 42 43 44 45 46 47 48 48 49 49 49 50 52 52 52 52 53 53 53 54 54 53 55 58 59 55 53 52 51 48 47 49 51 52 54 57 58 57 56 54 53
40 41 43 44 45 46 48 49 49 50 51 50 49 50 51 50 49 50 51 50 48 48 48 48 52 53 49 48 48 46 44 44 46 48 51 53 55 56 57 57 57 55
40 41 42 44 46 47 48 49 51 51 51 49 48 47 48 47 45 46 48 46 43 43 42 41 45 47 43 42 43 42 39 39 41 44 48 50 51 52 54 55 57 58
40 41 43 44 46 47 48 49 50 50 49 48 47 46 45 45 43 43 44 43 40 40 39 38 40 42 39 37 38 37 35 35 37 40 43 46 48 49 52 55 57 58
Wind_Direction
18 15 12 8 7 7 7 8 8 7 8 11 13 14 12 7 2 359 353 348 343 339 336 332 325 316 305 292 279 270 264 261 259 256 253 252 252 252 253 254 255 257
12 9 5 2 0 359 360 360 359 358 358 0 1 1 359 356 352 351 350 349 347 344 341 338 334 328 320 311 298 286 278 271 266 261 258 257 255 254 253 253 253 254
7 2 357 355 353 351 352 352 350 350 352 351 350 350 349 348 345 343 341 340 339 339 338 336 334 330 325 320 313 304 296 287 280 272 265 261 259 257 255 254 252 252
14 3 356 351 349 347 346 343 340 341 343 343 343 343 342 341 339 339 338 336 334 332 330 329 329 328 325 320 316 312 306 299 291 283 275 269 264 261 259 257 255 253
16 8 1 354 350 347 343 339 336 335 336 337 338 337 336 334 333 332 332 332 333 332 329 327 324 323 322 318 315 313 309 304 296 287 280 277 272 267 263 261 258 256
1 358 356 352 351 349 346 343 339 336 335 333 334 333 330 329 328 327 326 325 327 328 329 328 326 323 320 317 315 312 310 307 302 294 285 281 277 272 268 264 262 260
353 351 349 347 346 344 342 342 340 339 338 335 333 331 327 325 324 322 321 320 320 321 323 324 325 325 323 320 317 314 310 307 304 302 297 291 285 278 271 267 265 264
349 348 347 345 344 341 339 338 337 337 336 334 333 331 329 327 324 321 319 317 316 315 315 316 317 319 320 320 319 317 314 311 307 303 301 299 296 292 286 277 270 267
343 343 342 341 340 339 338 336 334 333 332 331 329 327 326 325 323 322 319 316 313 311 310 309 310 311 312 314 315 315 314 312 309 306 302 300 298 298 297 292 284 277
334 334 334 333 332 332 332 332 331 330 329 328 326 324 323 321 320 319 318 315 313 310 307 306 305 304 305 306 308 310 311 309 308 305 303 301 299 297 297 296 294 290
330 330 329 328 327 326 326 326 325 325 325 324 322 321 319 318 318 316 315 314 312 310 308 306 305 302 300 299 300 301 303 305 304 303 301 298 297 295 294 293 292 291
325 326 325 325 324 323 323 323 322 322 322 321 320 318 316 316 315 313 312 311 310 309 308 307 305 303 301 298 296 295 294 296 297 298 298 296 295 293 292 291 290 289
324 324 325 325 324 323 323 322 322 321 320 320 319 317 316 315 314 312 311 310 308 307 306 306 304 302 301 300 298 296 294 291 290 291 292 293 293 292 291 289 288 288
325 326 326 325 323 323 322 321 320 319 318 317 317 316 315 314 313 312 310 309 308 307 306 305 303 301 300 300 299 299 297 295 292 289 288 288 288 289 289 288 286 285
322 324 323 322 321 320 319 318 317 316 316 315 314 313 312 311 310 309 307 306 305 304 304 303 302 301 300 300 299 298 298 297 295 293 290 288 286 284 284 284 284 283
317 319 319 318 318 317 316 315 314 313 312 311 310 309 307 306 305 303 302 302 301 300 299 298 297 297 297 297 296 296 295 295 295 294 292 291 288 286 283 281 281 281
313 315 316 315 315 314 313 312 311 310 309 308 307 306 304 303 301 300 299 298 297 296 295 294 293 293 292 292 292 292 293 293 293 292 291 290 288 287 285 283 281 280
312 313 313 313 312 312 311 311 310 309 308 307 306 305 304 302 300 299 298 297 296 294 293 292 291 290 290 290 290 290 291 291 292 291 289 288 287 286 285 284 283 282
311 311 311 311 311 311 311 310 309 308 307 306 305 304 303 301 300 299 297 296 295 294 293 292 290 289 288 288 289 289 290 290 291 290 289 287 286 285 284 283 282 281
311 311 311 312 312 312 311 310 309 308 307 306 304 302 301 299 298 297 295 294 293 292 291 290 289 288 287 287 288 288 289 290 291 290 288 286 285 283 282 281 280 279
313 313 314 314 314 313 312 311 310 308 307 305 303 301 298 296 295 293 292 291 290 289 288 287 287 287 287 287 287 288 289 290 290 289 287 285 283 281 280 279 278 278
316 316 316 317 316 315 314 312 311 309 307 305 302 300 298 295 293 292 291 290 289 288 288 287 287 288 288 288 289 289 289 290 289 288 287 285 283 281 279 278 276 275
319 319 319 319 318 316 314 313 311 309 307 305 303 301 299 297 296 294 293 292 292 292 291 291 291 291 291 291 291 291 290 289 288 287 286 284 282 280 279 278 277 275
322 321 321 319 318 316 314 313 311 309 308 306 305 303 301 300 299 297 296 295 295 295 295 294 293 294 294 293 292 291 290 289 288 287 286 284 283 282 281 279 277 275
323 322 320 319 318 317 316 315 313 312 311 310 308 306 305 303 302 300 299 298 298 298 297 296 295 296 297 296 294 294 293 292 291 289 288 286 286 285 284 280 277 274
324 323 321 320 320 319 318 317 315 314 313 312 310 309 307 306 305 303 302 301 302 302 301 301 300 301 303 304 302 301 299 296 291 288 287 287 287 286 285 283 280 277